| time (UTC) | temp F | wind direction | speed MPH | gust MPH | rain 1hr in | rain 24hr in | rain mn in | humidity % | barometer mb |
| 20260902101607 | 74 | 5 | 1.0 | 5.0 | 0.00 | 0.00 | 0.00 | 86 | 976.3 |
| 20260902100054 | 75 | 6 | 2.0 | 13.0 | 0.00 | 0.00 | 0.00 | 84 | 976.2 |
| 20260902094553 | 75 | 6 | 2.0 | 12.0 | 0.00 | 0.00 | 0.00 | 83 | 976.4 |
| 20260902093048 | 76 | 5 | 2.0 | 12.0 | 0.00 | 0.00 | 0.00 | 81 | 976.2 |
| 20260902091549 | 74 | 6 | 2.0 | 15.0 | 0.00 | 0.00 | 0.00 | 84 | 975.8 |
| 20260902090040 | 73 | 145 | 0.0 | 4.0 | 0.00 | 0.00 | 0.00 | 89 | 974.7 |
| 20260902084538 | 72 | 45 | 1.0 | 4.0 | 0.00 | 0.00 | 0.00 | 90 | 974.1 |
| 20260902083038 | 72 | 34 | 0.0 | 4.0 | 0.00 | 0.00 | 0.00 | 90 | 974.3 |
| 20260902081543 | 73 | 1 | 1.0 | 4.0 | 0.00 | 0.00 | 0.00 | 89 | 974.3 |
| 20260902080037 | 74 | 44 | 1.0 | 5.0 | 0.00 | 0.00 | 0.00 | 87 | 974.2 |
| 20260902074534 | 74 | 58 | 2.0 | 6.0 | 0.00 | 0.00 | 0.00 | 86 | 974.4 |
| 20260902073030 | 73 | 1 | 0.0 | 4.0 | 0.00 | 0.00 | 0.00 | 89 | 974.4 |
| 20260902071529 | 73 | 1 | 1.0 | 6.0 | 0.00 | 0.00 | 0.00 | 90 | 974.0 |
| 20260902070027 | 72 | 1 | 2.0 | 5.0 | 0.00 | 0.00 | 0.00 | 91 | 973.7 |
| 20260902064525 | 72 | 2 | 2.0 | 5.0 | 0.00 | 0.00 | 0.00 | 92 | 973.5 |
| 20260902063025 | 72 | 38 | 2.0 | 5.0 | 0.00 | 0.00 | 0.00 | 91 | 973.6 |
| 20260902061527 | 72 | 27 | 3.0 | 5.0 | 0.00 | 0.00 | 0.00 | 92 | 973.5 |
| 20260902060022 | 73 | 27 | 2.0 | 5.0 | 0.00 | 0.00 | 0.00 | 91 | 973.7 |
| 20260902054520 | 73 | 34 | 2.0 | 6.0 | 0.00 | 0.00 | 0.00 | 91 | 973.9 |
| 20260902053032 | 73 | 39 | 3.0 | 5.0 | 0.00 | 0.00 | 0.00 | 91 | 973.9 |
| 20260902051514 | 73 | 37 | 3.0 | 6.0 | 0.00 | 0.00 | 0.00 | 92 | 974.0 |
| 20260902050011 | 73 | 49 | 0.0 | 4.0 | 0.00 | 0.00 | 0.00 | 91 | 973.9 |
| 20260902044511 | 74 | 2 | 2.0 | 5.0 | 0.00 | 0.00 | 0.00 | 91 | 973.9 |
| 20260902043008 | 74 | 32 | 3.0 | 5.0 | 0.00 | 0.00 | 0.00 | 92 | 973.9 |
| 20260902041510 | 74 | 40 | 1.0 | 4.0 | 0.00 | 0.00 | 0.00 | 93 | 974.1 |
| 20260902040008 | 74 | 41 | 3.0 | 4.0 | 0.00 | 0.00 | 0.00 | 93 | 974.1 |
| 20260902034507 | 75 | 1 | 2.0 | 4.0 | 0.00 | 0.00 | 0.00 | 93 | 974.2 |
| 20260902033007 | 75 | 41 | 2.0 | 4.0 | 0.00 | 0.00 | 0.00 | 93 | 974.3 |
| 20260902031506 | 75 | 30 | 1.0 | 3.0 | 0.00 | 0.00 | 0.00 | 94 | 974.2 |
| 20260902030121 | 75 | 30 | 1.0 | 3.0 | 0.00 | 0.00 | 0.00 | 94 | 974.1 |
| 20260902024507 | 75 | 30 | 1.0 | 2.0 | 0.00 | 0.00 | 0.00 | 94 | 974.1 |
| 20260902023004 | 76 | 30 | 0.0 | 0.0 | 0.00 | 0.00 | 0.00 | 94 | 974.0 |
| 20260902021506 | 76 | 30 | 0.0 | 0.0 | 0.00 | 0.00 | 0.00 | 93 | 973.9 |
| 20260902020003 | 77 | 1 | 0.0 | 0.0 | 0.00 | 0.00 | 0.00 | 92 | 973.8 |
| 20260902014504 | 78 | 30 | 0.0 | 0.0 | 0.00 | 0.00 | 0.00 | 92 | 973.6 |
| 20260902013002 | 79 | 30 | 0.0 | 0.0 | 0.00 | 0.00 | 0.00 | 92 | 973.4 |
| 20260902011501 | 79 | 1 | 0.0 | 0.0 | 0.00 | 0.00 | 0.00 | 91 | 973.5 |
| 20260902010001 | 80 | 30 | 0.0 | 0.0 | 0.00 | 0.00 | 0.00 | 89 | 973.5 |
| 20260902004600 | 81 | 1 | 0.0 | 1.0 | 0.00 | 0.00 | 0.00 | 87 | 973.5 |
| 20260902003100 | 84 | 30 | 0.0 | 0.0 | 0.00 | 0.00 | 0.00 | 84 | 973.6 |
| 20260902001559 | 85 | 30 | 0.0 | 0.0 | 0.00 | 0.00 | 0.00 | 83 | 973.5 |
| 20260901234613 | 86 | 30 | 0.0 | 0.0 | 0.00 | 0.00 | 0.00 | 81 | 973.6 |
| 20260901233101 | 86 | 30 | 0.0 | 3.0 | 0.00 | 0.00 | 0.00 | 80 | 973.6 |
| 20260901231556 | 87 | 41 | 2.0 | 4.0 | 0.00 | 0.00 | 0.00 | 77 | 973.6 |
| 20260901230135 | 87 | 21 | 2.0 | 4.0 | 0.00 | 0.00 | 0.00 | 78 | 973.7 |
| 20260901224555 | 88 | 26 | 3.0 | 7.0 | 0.00 | 0.00 | 0.00 | 75 | 973.7 |
| 20260901223109 | 88 | 31 | 2.0 | 7.0 | 0.00 | 0.00 | 0.00 | 75 | 973.8 |
| 20260901221554 | 88 | 18 | 4.0 | 8.0 | 0.00 | 0.00 | 0.00 | 73 | 973.8 |
| 20260901220059 | 88 | 31 | 5.0 | 7.0 | 0.00 | 0.00 | 0.00 | 73 | 973.8 |
| 20260901214551 | 88 | 34 | 3.0 | 9.0 | 0.00 | 0.00 | 0.00 | 77 | 973.9 |
| 20260901213050 | 88 | 45 | 4.0 | 8.0 | 0.00 | 0.00 | 0.00 | 75 | 974.0 |
| 20260901211554 | 89 | 49 | 5.0 | 9.0 | 0.00 | 0.00 | 0.00 | 73 | 974.2 |
| 20260901210052 | 89 | 28 | 3.0 | 7.0 | 0.00 | 0.00 | 0.00 | 75 | 974.3 |
| 20260901204546 | 90 | 1 | 3.0 | 6.0 | 0.00 | 0.00 | 0.00 | 76 | 974.5 |
| 20260901203048 | 90 | 33 | 2.0 | 7.0 | 0.00 | 0.00 | 0.00 | 74 | 974.7 |
| 20260901201541 | 89 | 29 | 3.0 | 6.0 | 0.00 | 0.00 | 0.00 | 74 | 974.8 |
| 20260901200053 | 89 | 2 | 0.0 | 7.0 | 0.00 | 0.00 | 0.00 | 69 | 974.9 |
| 20260901194552 | 89 | 46 | 2.0 | 6.0 | 0.00 | 0.00 | 0.00 | 72 | 975.0 |
| 20260901193036 | 89 | 13 | 4.0 | 7.0 | 0.00 | 0.00 | 0.00 | 72 | 975.1 |
| 20260901191535 | 89 | 2 | 2.0 | 5.0 | 0.00 | 0.00 | 0.00 | 71 | 975.1 |
| 20260901190035 | 89 | 2 | 3.0 | 6.0 | 0.00 | 0.00 | 0.00 | 71 | 975.2 |
| 20260901184533 | 89 | 29 | 2.0 | 5.0 | 0.00 | 0.00 | 0.00 | 76 | 975.3 |
| 20260901183040 | 88 | 1 | 2.0 | 6.0 | 0.00 | 0.00 | 0.00 | 77 | 975.4 |
| 20260901181531 | 89 | 1 | 2.0 | 5.0 | 0.00 | 0.00 | 0.00 | 75 | 975.6 |
| 20260901180029 | 88 | 1 | 0.0 | 5.0 | 0.00 | 0.00 | 0.00 | 73 | 975.8 |
| 20260901174526 | 88 | 8 | 1.0 | 4.0 | 0.00 | 0.00 | 0.00 | 75 | 975.9 |
| 20260901173024 | 87 | 7 | 0.0 | 3.0 | 0.00 | 0.00 | 0.00 | 79 | 976.0 |
| 20260901171524 | 86 | 7 | 1.0 | 6.0 | 0.00 | 0.00 | 0.00 | 79 | 976.1 |
| 20260901170020 | 86 | 360 | 1.0 | 5.0 | 0.00 | 0.00 | 0.00 | 84 | 976.1 |
| 20260901164518 | 86 | 360 | 1.0 | 5.0 | 0.00 | 0.00 | 0.00 | 82 | 976.0 |
| 20260901163016 | 85 | 18 | 3.0 | 6.0 | 0.00 | 0.00 | 0.00 | 85 | 976.2 |
| 20260901161513 | 84 | 7 | 2.0 | 7.0 | 0.00 | 0.00 | 0.00 | 88 | 976.0 |
| 20260901160014 | 84 | 39 | 2.0 | 7.0 | 0.00 | 0.00 | 0.00 | 86 | 975.9 |
| 20260901154508 | 83 | 1 | 3.0 | 7.0 | 0.00 | 0.00 | 0.00 | 88 | 976.0 |
| 20260901153007 | 82 | 321 | 2.0 | 5.0 | 0.00 | 0.00 | 0.00 | 89 | 975.9 |
| 20260901151504 | 82 | 1 | 0.0 | 4.0 | 0.00 | 0.00 | 0.00 | 92 | 975.9 |
| 20260901144557 | 80 | 1 | 0.0 | 2.0 | 0.00 | 0.00 | 0.00 | 94 | 976.1 |
| 20260901143054 | 78 | 10 | 0.0 | 3.0 | 0.00 | 0.00 | 0.00 | 97 | 976.1 |
| 20260901141558 | 77 | 1 | 0.0 | 3.0 | 0.00 | 0.00 | 0.00 | 98 | 976.3 |
| 20260901140052 | 76 | 9 | 0.0 | 3.0 | 0.00 | 0.00 | 0.00 | 99 | 976.4 |
| 20260901134549 | 75 | 10 | 0.0 | 2.0 | 0.00 | 0.00 | 0.00 | 99 | 976.5 |
| 20260901133048 | 73 | 5 | 0.0 | 0.0 | 0.00 | 0.00 | 0.00 | 99 | 976.5 |
| 20260901131548 | 73 | 5 | 0.0 | 0.0 | 0.00 | 0.00 | 0.00 | 99 | 976.6 |
| 20260901130047 | 72 | 5 | 0.0 | 0.0 | 0.00 | 0.00 | 0.00 | 99 | 976.6 |
| 20260901124553 | 72 | 5 | 0.0 | 0.0 | 0.00 | 0.00 | 0.00 | 99 | 976.6 |
| 20260901123045 | 72 | 5 | 0.0 | 0.0 | 0.00 | 0.00 | 0.00 | 99 | 976.4 |
| 20260901121557 | 71 | 5 | 0.0 | 0.0 | 0.00 | 0.00 | 0.00 | 99 | 976.3 |
| 20260901120043 | 71 | 5 | 0.0 | 0.0 | 0.00 | 0.00 | 0.00 | 98 | 976.1 |
| 20260901114547 | 71 | 5 | 0.0 | 0.0 | 0.00 | 0.00 | 0.00 | 98 | 976.0 |
| 20260901113043 | 71 | 5 | 0.0 | 0.0 | 0.00 | 0.00 | 0.00 | 98 | 975.9 |
| 20260901111547 | 71 | 5 | 0.0 | 0.0 | 0.00 | 0.00 | 0.00 | 98 | 975.9 |
| 20260901110046 | 72 | 5 | 0.0 | 0.0 | 0.00 | 0.00 | 0.00 | 99 | 975.7 |
| 20260901104541 | 72 | 5 | 0.0 | 0.0 | 0.00 | 0.00 | 0.00 | 99 | 975.7 |
| 20260901103040 | 71 | 5 | 0.0 | 0.0 | 0.00 | 0.00 | 0.00 | 98 | 975.8 |